Location: Bli��� Lhota
(48.7570°N, 14.0120°E)
Time: 04:40:35
(UTC+00:00)

OBJECT-B - Pass Details

Date: 18 September 2020
Orbit: 421 x 433 km, 97.0° (Epoch: 09 October)

Event Time Altitude Azimuth Distance (km) Brightness Sun altitude
Exits shadow 19:01:25 67° 113° (ESE) 462 0.6 -18.6°
Maximum altitude 19:01:39 72° 76° (ENE) 451 0.6 -18.7°
Drops below altitude 10° 19:04:54 10° 352° (N) 1,523 4.0 -19.1°
Sets 19:06:55 0° 350° (N) 2,396 5.1 -19.4°
